Regional Weather Roundup
Issued by NWS

Home | Current Version | Previous Version | Graphics & Text | Print | Product List | Glossary Off
Versions: 1 2 3 4 5 6 7 8 9 10 11 12 13 14 15 16 17 18 19 20 21 22 23 24 25 26 27 28 29 30 31 32 33 34 35 36 37 38 39 40 41 42 43 44 45 46 47 48 49 50

000
ASUS43 KMPX 191201
RWRMN
WEATHER ROUNDUP FOR MINNESOTA
NATIONAL WEATHER SERVICE TWIN CITIES/CHANHASSEN MN
600 AM CST SUN FEB 19 2017


NOTE: "FAIR" INDICATES FEW OR NO CLOUDS BELOW 12,000 FEET WITH NO
SIGNIFICANT WEATHER AND/OR OBSTRUCTIONS TO VISIBILITY. N/A MEANS
CURRENT SKY AND/OR WEATHER CONDITIONS ARE NOT AVAILABLE.

MNZ060>063-068>070-191300-
   Twin Cities Metro

CITY           SKY/WX    TMP DP  RH WIND       PRES   REMARKS
TWIN CITIES    CLOUDY    34  31  88 SE6       29.93R WCI  29
6HR MIN TEMP:  32; 6HR MAX TEMP:  39;

ST PAUL        PTCLDY    30  30 100 CALM      29.94R FOG
CRYSTAL        PTCLDY    29  25  85 CALM      29.91R
BLAINE         CLOUDY    30  30 100 CALM      29.92R
LAKEVILLE      CLOUDY    27  27 100 CALM      29.93R
EDEN PRAIRIE   CLOUDY    32  31  96 CALM      29.91R
6HR MIN TEMP:  30; 6HR MAX TEMP:  39;

SOUTH ST PAUL  CLOUDY    30  29  97 CALM      29.93R
LAKE ELMO      FAIR      30  28  93 CALM      29.94R
$$
MNZ001>005-007-008-013>017-022>024-027-028-191300-
   Northwest Minnesota

CITY           SKY/WX    TMP DP  RH WIND       PRES   REMARKS
BEMIDJI        PTCLDY    31  30  97 SE6       29.87S WCI  25
HALLOCK        CLOUDY    36  30  80 E13       29.84S
ROSEAU         CLOUDY    34  28  80 E8        29.88R WCI  27
WARROAD        CLOUDY    30  27  86 E7        29.89S WCI  23
THIEF RVR FALL CLOUDY    34  30  85 E15       29.84F WCI  24
CROOKSTON      CLOUDY    36  34  93 E10       29.82S
FOSSTON        CLOUDY    32  30  93 E6        29.84S WCI  26
DETROIT LAKES  PTCLDY    41  36  81 SE7       29.83S
MOORHEAD       CLOUDY    37  34  87 SE7       29.80R
PARK RAPIDS    PTCLDY    34  29  82 E9        29.86S WCI  27
MAHNOMEN       FAIR      37  32  83 SE13      29.82S
$$
MNZ006-009>011-018-025>026-191300-
   North Central Minnesota

CITY           SKY/WX    TMP DP  RH WIND       PRES   REMARKS
BAUDETTE       CLOUDY    31  28  89 SE5       29.88S WCI  26
FLAG ISLAND    CLOUDY    30  27  86 CALM      29.89R
INTL FALLS     CLOUDY    30  27  88 E3        29.90S
6HR MIN TEMP:  25; 6HR MAX TEMP:  31;

WASKISH        CLOUDY    32  30  93 CALM      29.90R
BIG FORK       CLOUDY    28  27  93 CALM      29.90R
LONGVILLE      PTCLDY    25  25 100 CALM      29.90S
GRAND RAPIDS   CLOUDY    27  26  96 S3        29.92R
CRANE LAKE     CLOUDY    27  27 100 CALM      29.94R
ORR            CLOUDY    30  27  86 CALM      29.88F
COOK           CLOUDY    28  27  93 CALM      29.91S
WALKER         FAIR      29  27  95 E3        29.88S
$$
MNZ012-019>021-037-191300-
   Northeast Minnesota

CITY           SKY/WX    TMP DP  RH WIND       PRES   REMARKS
DULUTH         CLOUDY    31  28  89 CALM      29.92R
6HR MIN TEMP:  30; 6HR MAX TEMP:  40;

ELY            CLOUDY    28  28 100 CALM      29.92R
HIBBING        CLOUDY    27  27 100 CALM      29.91R
EVELETH        PTCLDY    31  29  94 CALM      29.92R
DULUTH HARBOR  CLOUDY    34  30  86 CALM      29.95R
TWO HARBORS    PTCLDY    36  30  80 CALM      29.91S
GRAND MARAIS     N/A     33  29  85 NW3       29.95R
G MARAIS ARPRT CLOUDY    28  25  86 CALM      29.91R
$$
MNZ029>031-032-039>041-046>048-054>057-064-191300-
   West Central Minnesota

CITY           SKY/WX    TMP DP  RH WIND       PRES   REMARKS
FERGUS FALLS   CLOUDY    43  36  75 SE12      29.85R
WHEATON        MOCLDY    34  32  93 SE12      29.82R WCI  25
MORRIS         MOCLDY    37  36  93 SE10      29.82R
ALEXANDRIA     PTCLDY    38  35  89 SE10      29.85S
ELBOW LAKE     FAIR      40  37  91 SE12      29.82R
WADENA         PTCLDY    34  34 100 E6        29.84F WCI  29
GLENWOOD       PTCLDY    36  34  93 E8        29.86R
APPLETON       PTCLDY    37  34  87 SE8       29.83R
BENSON         MOCLDY    43  36  75 S12       29.86R
ORTONVILLE     PTCLDY    34  32  93 CALM      29.81R
WILLMAR        FAIR      37  37 100 CALM      29.87R
$$
MNZ033>034-036-042>043-049>051-058-059-191300-
   Central Minnesota

CITY           SKY/WX    TMP DP  RH WIND       PRES   REMARKS
ST CLOUD       CLOUDY    31  31 100 E5        29.90R FOG     WCI  26
6HR MIN TEMP:  28; 6HR MAX TEMP:  34;

SAUK CENTRE    FAIR      35  34  98 E5        29.86S WCI  31
PAYNESVILLE    CLOUDY    31  31 100 E3        29.87F
AITKIN         PTCLDY    30  27  86 CALM      29.90R
PINE RIVER     CLOUDY    27  27 100 CALM      29.93S
BRAINERD       PTCLDY    28  27  96 CALM      29.90R
STAPLES        PTCLDY    34  34 100 E6        29.86F WCI  29
LONG PRAIRIE   FAIR      34  34 100 NE5       29.87S WCI  30
LITTLE FALLS   PTCLDY    30  28  93 CALM      29.89S FOG
LITCHFIELD     PTCLDY    36  34  93 SE7       29.89S FOG
BUFFALO        PTCLDY    31  30  95 CALM      29.92R FOG
MAPLE LAKE     PTCLDY    30  30 100 CALM      29.91S FOG
HUTCHINSON     CLOUDY    34  34 100 E5        29.90S FOG     WCI  29
$$
MNZ037-044-045-052-053-191300-
   East Central Minnesota

CITY           SKY/WX    TMP DP  RH WIND       PRES   REMARKS
PRINCETON      PTCLDY    28  28 100 CALM      29.91S
MORA           CLOUDY    27  27 100 CALM      29.94R
CAMBRIDGE      CLOUDY    28  23  80 CALM      29.91R
RUSH CITY      CLEAR     28  27  93 CALM      29.93R FOG
MOOSE LAKE     CLOUDY    28  27  93 CALM      29.92R
HINCKLEY       FAIR      28  28 100 NE5       29.93R WCI  23
CLOQUET        CLOUDY    28  27  93 CALM      29.92R
MCGREGOR       PTCLDY    30  28  93 CALM      29.92R
$$
MNZ071>073-080-081-089-090-097-098-191300-
   Southwest Minnesota

CITY           SKY/WX    TMP DP  RH WIND       PRES   REMARKS
MONTEVIDEO     CLOUDY    36  36 100 S10       29.85S
GRANITE FALLS  CLOUDY    38  36  91 SE8       29.86R
CANBY          MOCLDY    33  33  97 CALM      29.82S
MARSHALL       CLEAR     43  37  79 S14       29.84R
REDWOOD FALLS  CLEAR     34  32  92 SE6       29.86S WCI  29
OLIVIA         CLEAR     36  34  93 SE7       29.86R
PIPESTONE      PTCLDY    43  34  70 SE10      29.81S
WINDOM         CLEAR     39  39 100 SE8       29.87R
WORTHINGTON    CLEAR     40  37  89 S14       29.85F
JACKSON        CLEAR     37  37 100 S10       29.88S
TRACY          CLEAR     44  40  86 S14G21    29.84R
SLAYTON        CLOUDY    32  32 100 SE5       29.85S FOG     WCI  27
$$
MNZ065>067-074>077-082>085-091>093-191300-
   South Central Minnesota

CITY           SKY/WX    TMP DP  RH WIND       PRES   REMARKS
MANKATO          N/A     36  35  96 E7        29.91R
NEW ULM        CLEAR     36  36 100 SE6       29.88S
ST JAMES       CLEAR     36  36 100 CALM      29.89S FOG
FAIRMONT       FOG       33  32  96 S8        29.91R VSB 1/2 WCI  26
GLENCOE        CLEAR     34  34 100 E6        29.90S WCI  29
FARIBAULT      CLOUDY    28  28 100 CALM      29.92S
OWATONNA       CLEAR     34  32  93 SE8       29.92R WCI  27
WASECA         CLEAR     32  32 100 E5        29.92R WCI  27
ALBERT LEA     FOG       28  28 100 CALM      29.92R VSB 1/4
$$
MNZ078>079-086>088-094>096-191300-
   Southeast Minnesota

CITY           SKY/WX    TMP DP  RH WIND       PRES   REMARKS
ROCHESTER      CLEAR     32  32 100 S7        29.93R WCI  26
6HR MIN TEMP:  31; 6HR MAX TEMP:  36;

RED WING       PTCLDY    30  30 100 E3        29.94R FOG
STANTON        CLOUDY    31  29  93 CALM      29.92R
DODGE CENTER   PTCLDY    34  34 100 SE3       29.92S
WINONA         CLEAR     30  30 100 CALM      29.97R
AUSTIN         CLEAR     32  30  93 SE3       29.93R
PRESTON        CLOUDY    31  30  96 SE5       29.94R FOG     WCI  26
$$
ABBREVIATIONS USED IN REMARKS
   TC - TEMPERATURES IN CELSIUS
  WCI - WIND CHILL INDEX
   HX - HEAT INDEX
  VSB - VISIBILITY
$$



USA.gov is the U.S. government's official web portal to all federal, state and local government web resources and services.